欧洲卫星公司-20星 (SES-20)

导读

SES 20是由全球领先卫星运营商SES拥有的通信卫星,于2022年10月4日搭乘联合发射联盟Atlas V火箭,从美国卡纳维拉尔角太空部队站发射升空,一同发射的还有SES-21卫星。该卫星运行于地球静止轨道,主要负责为北美地区提供高清电视传播、数据通信服务,替换老旧卫星增强覆盖能力,是SES推进网络基础设施升级、保障稳定通信服务的重要节点。

基本信息
目录编号:
53960
目录名称:
SES 20
国际标识:
2022-123A
轨道中心:
EARTH
卫星名称:
欧洲卫星公司-20星
卫星全名:
欧洲卫星公司-20星 (SES-20)
卫星状态:
在轨 (已飞行1351 天)
发射日期:
2022-10-04 UTC
国别 :
(SES)
星等 :
--
轨道信息
数据来源 国际轨道数据 AOE轨道数据
星历时间 2026-06-15T17:13:24+0800
1天前
查看轨道信息
2026-06-15T15:00:00+0800
1天前
查看轨道信息
半长轴 42165.569km 42164.784km
偏心率 0.0001705 0.0001686
轨道倾角 0.034° 0.036°
近地点辐角 25.991° 28.336°
升交点赤经 70.664° 74.318°
平近点角 202.258° 162.824°
近地点 35780.242km 35779.538km
远地点 35794.622km 35793.756km
周期 1436.140分钟 1436.100分钟
每日圈数 1.002688 1.002716
详细信息
卫星平台:
BSS-702SP
平衡模式:
三轴稳定
覆盖范围:
大西洋
运营商:
欧洲卫星公司
运营商所在国:
卢森堡
制造商(研发单位):
波音公司
制造商所在国:
美国
使用方式:
暂无
卫星简介
欧洲卫星公司:成立于1985年,总部设在卢森堡。该公司通过运营ASTRA、AMERICOM及 NEW SKIES卫星系统为客户提供电视、广播和多媒体直接到户的信息传送服务,是世界第二大卫星运营商。该卫星仍在工作。
2D轨道图
3D轨道图
轨道高度分析图
轨道倾角分析图
轨道综合分析图
查看轨道综合分析图